Regional Weather Roundup
Issued by NWS

Home | Current Version | Previous Version | Graphics & Text | Print | Product List | Glossary Off
Versions: 1 2 3 4 5 6 7 8 9 10 11 12 13 14 15 16 17 18 19 20 21 22 23 24 25 26 27 28 29 30 31 32 33 34 35 36 37 38 39 40 41 42 43 44 45 46 47 48 49 50

205
ASUS43 KMKX 070510
RWRWI

WISCONSIN REGIONAL WEATHER ROUNDUP
NATIONAL WEATHER SERVICE MILWAUKEE/SULLIVAN WI
1100 PM CST SAT FEB 06 2016

NOTE: "FAIR" INDICATES FEW OR NO CLOUDS BELOW 12,000 FEET WITH NO
SIGNIFICANT WEATHER AND/OR OBSTRUCTIONS TO VISIBILITY.

WIZ001-002-006>008-014>016-023>028-070600-
NORTHWEST WISCONSIN

CITY           SKY/WX    TMP DP  RH WIND       PRES   REMARKS
SUPERIOR ARPT  FLURRIES  33  30  87 SW12G17   29.67S WCI  25
ASHLAND        FLURRIES  32  28  85 S10       29.70F WCI  24
HAYWARD        LGT SNOW  30  26  85 S15       29.72F FOG     WCI  19
SIREN          CLOUDY    32  29  88 S10G16    29.71F WCI  24
CUMBERLAND     CLOUDY    30  28  93 S13       29.74F WCI  20
RICE LAKE      LGT SNOW  30  28  90 S10       29.79F WCI  21
CHETEK         LGT SNOW  30  28  92 S9        29.79F WCI  21
LADYSMITH      LGT SNOW  30  26  85 S10G21    29.80F WCI  21
EAU CLAIRE     LGT SNOW  31  26  82 S10       29.82F WCI  22
MENOMONIE      LGT RAIN  32  27  80 S8        29.81F WCI  25
NEW RICHMOND   CLOUDY    32  28  84 S10       29.76F WCI  23
OSCEOLA        CLOUDY    33  30  88 S10       29.77F WCI  25
$$

WIZ003>005-009-010-017-018-070600-
NORTH CENTRAL WISCONSIN

CITY           SKY/WX    TMP DP  RH WIND       PRES   REMARKS
MANITOWISH WTR CLOUDY    30  26  83 S12       29.73F WCI  20
ARBOR VITAE    CLOUDY    32  27  83 S12G17    29.76F WCI  23
WOODRUFF       CLOUDY    32  27  83 S12G17    29.76F WCI  23
RHINELANDER    LGT SNOW  29  24  82 S12       29.80S WCI  19
EAGLE RIVER    LGT SNOW  29  24  83 S7        29.77F WCI  22
LAND O LAKES   FLURRIES  30  26  83 S9G17     29.76F WCI  22
PHILLIPS       FLURRIES  29  24  80 S12G17    29.76F WCI  20
TOMAHAWK       CLOUDY    28  23  81 S3        29.82F
MEDFORD        CLOUDY    28  24  86 S13       29.81F WCI  17
MERRILL        CLOUDY    30  24  77 SW9       29.86S WCI  22
$$

WIZ029-030-035-036-043>047-070600-
CENTRAL WISCONSIN

CITY           SKY/WX    TMP DP  RH WIND       PRES   REMARKS
WAUSAU         CLOUDY    31  24  75 S14       29.85F WCI  21
MOSINEE        CLOUDY    30  27  86 S12       29.88F WCI  21
MARSHFIELD     CLOUDY    30  22  72 S10       29.85F WCI  21
STEVENS POINT  CLOUDY    28  24  85 S9        29.90F WCI  19
WAUPACA        CLOUDY    32  26  78 S9        29.94F WCI  24
WAUTOMA        CLOUDY    30  27  89 S6        29.94F WCI  24
WISC RAPIDS    CLOUDY    30  23  75 SW9       29.92F WCI  22
CAMP DOUGLAS   CLOUDY    32  31  99 VRB2      29.90F
$$

WIZ011>013-019>022-031-037>040-048>050-070600-
NORTHEAST WISCONSIN

CITY           SKY/WX    TMP DP  RH WIND       PRES   REMARKS
ANTIGO         LGT SNOW  27  25  90 S13       29.85F WCI  17
SHAWANO        CLOUDY    32  26  79 SW3       29.93F
OCONTO         CLOUDY    30  26  84 SW7       29.94F WCI  23
STURGEON BAY   CLOUDY    28  23  80 S10       29.97F WCI  19
GREEN BAY      CLOUDY    29  24  82 S12       29.95F WCI  19
MANITOWOC      CLOUDY    30  26  85 SW7       29.99S WCI  23
APPLETON       CLOUDY    28  23  80 S12       29.93F WCI  18
CLINTONVILLE   CLOUDY    30  27  86 S8        29.93F WCI  23
OSHKOSH        CLOUDY    29  24  82 S13       29.95F WCI  19
$$

WIZ032>034-041-042-053>061-070600-
SOUTHWEST WISCONSIN

CITY           SKY/WX    TMP DP  RH WIND       PRES   REMARKS
LA CROSSE      CLOUDY    31  26  82 SE10      29.90F WCI  22
SPARTA         CLOUDY    32  27  83 SW6       29.91F WCI  26
VIROQUA        CLOUDY    31  28  88 S14       29.90F WCI  21
BOSCOBEL       PTCLDY    33  29  85 S8        29.96F WCI  26
PRAIRIE DU CHI CLOUDY    34  28  77 CALM      29.94F
PLATTEVILLE    MOCLDY    32  31  94 S13       29.97F WCI  22
$$

WIZ056-057-062-063-064-067-068-070600-
SOUTH CENTRAL WISCONSIN

CITY           SKY/WX    TMP DP  RH WIND       PRES   REMARKS
REEDSBURG      CLOUDY    31  28  90 S9        29.94F WCI  23
BARABOO/DELLS  CLOUDY    32  27  83 S13       29.94F WCI  22
LONE ROCK      CLOUDY    32  27  81 SW6       29.97F WCI  26
MINERAL POINT  CLOUDY    32  32 100 S12       29.96F WCI  23
MADISON        CLOUDY    31  27  85 S3        29.99F
MIDDLETON      CLOUDY    32  29  87 S8        29.98F WCI  25
WATERTOWN      CLOUDY    30  30 100 S5        29.99F WCI  25
MONROE         CLOUDY    32  30  93 S13       29.99S WCI  22
JANESVILLE     CLOUDY    32  32 100 S5        30.01S WCI  27
$$

WIZ051-052-058>065-066-070>072-070600-
SOUTHEAST WISCONSIN

CITY           SKY/WX    TMP DP  RH WIND       PRES   REMARKS
MILWAUKEE      CLOUDY    33  27  78 SW9       30.02F WCI  25
WAUKESHA       CLOUDY    30  28  93 SW3       30.01F
MILWAUKEE/TIMM CLOUDY    32  27  80 SW6       30.02F WCI  26
RACINE         PTCLDY    33  27  78 SW8       30.04F WCI  26
BURLINGTON     CLOUDY    29  27  90 S3        30.02S
KENOSHA        PTCLDY    32  27  81 SW7       30.03F WCI  26
FOND DU LAC    CLOUDY    30  25  81 SW13      29.97F WCI  20
SHEBOYGAN      CLOUDY    30  25  81 SW9       29.99S WCI  22
WEST BEND      CLOUDY    30  27  86 SW5       29.99F WCI  25
JUNEAU         CLOUDY    29  26  90 S9        29.99F WCI  20
$$

LSZ147-162-070600-
LAKE SUPERIOR

STATION/POSITION TIME  TEMP    WIND        PRES    WAVE
                       AIR SEA DIR/SP/G            HT/PER
                 (UTC) (F)     (DEG/KT/KT) (MB)    (FT/S)
DEVILS ISLAND    0500   31     180/  5/  8 1006.1F
PORT WING        0400          180/  9/ 21   N/A
SAXON HARBOR     0440   34                 1006.4F
$$

LMZ867-665-643>646-070600-
LAKE MICHIGAN

STATION/POSITION TIME  TEMP    WIND        PRES    WAVE
                       AIR SEA DIR/SP/G            HT/PER
                 (UTC) (F)     (DEG/KT/KT) (MB)    (FT/S)
CHAMBERS ISLAND  0400   29     170/  8/ 14 1014.6S
ALGOMA LAKESHORE 0441          230/ 13/ 16   N/A
KEWAUNEE LAKESHO 0400   30     210/  8/ 11 1014.3F
SHEBOYGAN LAKESH 0500   31     210/ 10/ 13 1016.7F
PORT WASHINGTON  0440   31     250/  3/  6 1017.3F
MILWAUKEE LAKESH 0410   34     230/  8/ 10   N/A
KENOSHA   LAKESH 0500   34     210/  7/ 10 1016.9F
$$

TC  - TEMPERATURE IN CELSIUS
VSB - VISIBILITY IN STATUTE MILES
WCI - WIND CHILL INDEX
HX  - HEAT INDEX





USA.gov is the U.S. government's official web portal to all federal, state and local government web resources and services.